This is the latest recevied weather packets stored in our database for station/object OE6ACM-10. If no packets are shown the sender has not sent any weather packets the latest 10 day(s).
| Time | Temp. | Humidity | Pressure | Rain* | Wind** | Luminosity | Snow |
|---|---|---|---|---|---|---|---|
| 1777537153 | 17.22° C | 54% | 936.1 hPa | - | - | - | - |
| 1777536853 | 16.67° C | 57% | 936.1 hPa | - | - | - | - |
| 1777536553 | 16.67° C | 57% | 936.1 hPa | - | - | - | - |
| 1777536253 | 16.11° C | 60% | 936.1 hPa | - | - | - | - |
| 1777535953 | 16.11° C | 63% | 936.1 hPa | - | - | - | - |
| 1777535653 | 15.56° C | 64% | 936.2 hPa | - | - | - | - |
| 1777535353 | 15.56° C | 68% | 936.2 hPa | - | - | - | - |
| 1777535053 | 15.56° C | 72% | 936.2 hPa | - | - | - | - |
| 1777534753 | 15° C | 74% | 936.2 hPa | - | - | - | - |
| 1777534453 | 14.44° C | 77% | 936.2 hPa | - | - | - | - |
| 1777534153 | 14.44° C | 78% | 936.2 hPa | - | - | - | - |
| 1777533853 | 14.44° C | 84% | 936.2 hPa | - | - | - | - |
| 1777533553 | 13.89° C | 86% | 936.3 hPa | - | - | - | - |
| 1777533253 | 13.89° C | 87% | 936.3 hPa | - | - | - | - |
| 1777532953 | 13.33° C | 89% | 936.4 hPa | - | - | - | - |
| 1777532653 | 13.33° C | 93% | 936.4 hPa | - | - | - | - |
| 1777532353 | 12.78° C | 95% | 936.5 hPa | - | - | - | - |
| 1777532053 | 12.22° C | 98% | 936.5 hPa | - | - | - | - |
| 1777531753 | 11.67° C | 100% | 936.6 hPa | - | - | - | - |
| 1777531453 | 11.67° C | 100% | 936.6 hPa | - | - | - | - |
| 1777531153 | 11.67° C | 100% | 936.5 hPa | - | - | - | - |
| 1777530853 | 11.11° C | 100% | 936.5 hPa | - | - | - | - |
| 1777530553 | 10.56° C | 100% | 936.6 hPa | - | - | - | - |
| 1777530253 | 10.56° C | 100% | 936.5 hPa | - | - | - | - |
| 1777529953 | 10° C | 100% | 936.5 hPa | - | - | - | - |
* Rain since midnight (hover to see other rain measurements)
** Current wind speed in m/s (hover to see current wind gust speed)